This demonstration page uses our WeatherBlox Daily Observations layout. Learn more.

Hourly Observations for December 7, 2017

Temp ( °F °C ) Dew Point ( °F °C ) Humidity (%) Winds ( mph kmh ) Pressure ( in mb ) Visibility ( mi km ) Precip ( " mm )
12:15 am 00:15 Clear 14 -10 10 -12.3 83 83 NW 8 13 30.68 1039 10 16.09344 0 0
12:35 am 00:35 Clear 14 -10 10 -12.5 82 82 NW 9 15 30.68 1039 10 16.09344 0 0
12:55 am 00:55 Clear 14 -10 9 -12.6 82 82 NNW 13 20 30.65 1038 10 16.09344 0 0
1:15 am 01:15 Clear 14 -10 9 -12.6 82 82 NNW 12 19 30.65 1038 10 16.09344 0 0
1:35 am 01:35 Clear 14 -10.2 9 -12.8 81 81 NW 12 19 30.68 1039 10 16.09344 0 0
1:55 am 01:55 Clear 13 -10.5 9 -13 82 82 NW 12 19 30.68 1039 10 16.09344 0 0
2:15 am 02:15 Clear 13 -10.7 8 -13.1 83 83 NNW 9 15 30.68 1039 10 16.09344 0 0
2:35 am 02:35 Clear 12 -11.1 8 -13.5 83 83 NW 9 15 30.71 1040 10 16.09344 0 0
2:55 am 02:55 Clear 11 -11.5 8 -13.6 85 85 NW 8 13 30.71 1040 10 16.09344 0 0
3:15 am 03:15 Clear 11 -11.8 7 -13.7 86 86 NW 9 15 30.71 1040 10 16.09344 0 0
3:35 am 03:35 Clear 10 -12.5 6 -14.3 87 87 NW 8 13 30.71 1040 10 16.09344 0 0
3:55 am 03:55 Clear 10 -12 7 -13.9 86 86 NW 9 15 30.71 1040 10 16.09344 0 0
4:15 am 04:15 Clear 9 -12.6 6 -14.3 87 87 NW 9 15 30.68 1039 10 16.09344 0 0
4:35 am 04:35 Clear 10 -12.5 6 -14.5 85 85 NW 8 13 30.68 1039 10 16.09344 0 0
4:55 am 04:55 Clear 9 -12.6 6 -14.5 86 86 NW 8 13 30.68 1039 10 16.09344 0 0
5:15 am 05:15 Clear 8 -13.5 5 -15.2 87 87 NW 5 7 30.68 1039 10 16.09344 0 0
5:35 am 05:35 Clear 8 -13.5 5 -15.2 87 87 NW 7 11 30.68 1039 10 16.09344 0 0
5:55 am 05:55 Clear 8 -13.6 4 -15.4 86 86 WNW 7 11 30.68 1039 10 16.09344 0 0
6:15 am 06:15 Clear 7 -13.7 4 -15.5 86 86 WNW 10 17 30.68 1039 10 16.09344 0 0
6:35 am 06:35 Clear 6 -14.2 3 -16.1 86 86 WNW 9 15 30.71 1040 10 16.09344 0 0
6:55 am 06:55 Clear 7 -14.1 3 -16.1 85 85 WNW 9 15 30.71 1040 10 16.09344 0 0
7:15 am 07:15 Clear 7 -14 3 -16.1 84 84 WNW 8 13 30.71 1040 10 16.09344 0 0
7:35 am 07:35 Clear 7 -14 3 -16.3 83 83 WNW 7 11 30.71 1040 10 16.09344 0 0
7:55 am 07:55 Sunny 7 -14 3 -16.3 83 83 WNW 8 13 30.71 1040 10 16.09344 0 0
8:15 am 08:15 Sunny 7 -13.7 3 -16.3 81 81 WNW 7 11 30.68 1039 10 16.09344 0 0
8:35 am 08:35 Sunny 8 -13.3 3 -16.1 80 80 WNW 6 9 30.68 1039 10 16.09344 0 0
8:55 am 08:55 Sunny 10 -12.2 4 -15.4 77 77 WNW 9 15 30.68 1039 10 16.09344 0 0
9:15 am 09:15 Sunny 11 -11.4 6 -14.7 77 77 NW 8 13 30.68 1039 10 16.09344 0 0
9:35 am 09:35 Sunny 13 -10.5 7 -14 76 76 NW 8 13 30.65 1038 10 16.09344 0 0
9:55 am 09:55 Sunny 16 -9 8 -13.4 71 71 NW 9 15 30.65 1038 10 16.09344 0 0
10:15 am 10:15 Sunny 18 -7.6 10 -12.2 70 70 NNW 10 17 30.62 1037 10 16.09344 0 0
10:35 am 10:35 Sunny 20 -6.8 11 -11.7 68 68 NNW 13 20 30.62 1037 10 16.09344 0 0
10:55 am 10:55 Sunny 21 -6.2 12 -11.3 68 68 N 12 19 30.59 1036 10 16.09344 0 0
11:15 am 11:15 Sunny 21 -6 11 -11.4 66 66 NNW 10 17 30.59 1036 10 16.09344 0 0
11:35 am 11:35 Sunny 22 -5.5 12 -11.1 65 65 NNW 10 17 30.53 1034 10 16.09344 0 0
11:55 am 11:55 Sunny 23 -5.2 12 -11 64 64 NNW 9 15 30.53 1034 10 16.09344 0 0
12:15 pm 12:15 Partly Cloudy 24 -4.5 13 -10.7 62 62 NW 10 17 30.5 1033 10 16.09344 0 0
12:35 pm 12:35 Sunny 26 -3.5 13 -10.4 59 59 NW 7 11 30.5 1033 10 16.09344 0 0
12:55 pm 12:55 Sunny 27 -3 13 -10.6 56 56 NW 12 19 30.48 1032 10 16.09344 0 0
1:15 pm 13:15 Sunny 28 -2.4 13 -10.8 53 53 NW 12 19 30.45 1031 10 16.09344 0 0
1:35 pm 13:35 Sunny 28 -2.2 12 -11.1 51 51 WNW 12 19 30.45 1031 10 16.09344 0 0
1:55 pm 13:55 Sunny 29 -1.7 12 -10.9 50 50 WNW 8 13 30.42 1030 10 16.09344 0 0
2:15 pm 14:15 Sunny 29 -1.5 12 -11.3 48 48 WNW 10 17 30.42 1030 10 16.09344 0 0
2:35 pm 14:35 Sunny 30 -1.3 11 -11.4 47 47 WNW 9 15 30.42 1030 10 16.09344 0 0
2:55 pm 14:55 Sunny 31 -0.8 11 -11.8 43 43 W 10 17 30.36 1028 10 16.09344 0 0
3:15 pm 15:15 Sunny 31 -0.8 10 -12.2 42 42 WNW 12 19 30.36 1028 10 16.09344 0 0
3:35 pm 15:35 Sunny 30 -0.9 9 -12.9 40 40 W 6 9 30.36 1028 10 16.09344 0 0
3:55 pm 15:55 Sunny 30 -1 9 -12.7 41 41 W 7 11 30.33 1027 10 16.09344 0 0
4:15 pm 16:15 Sunny 30 -0.9 8 -13.5 38 38 WNW 9 15 30.33 1027 10 16.09344 0 0
4:35 pm 16:35 Sunny 30 -1.2 8 -13.2 40 40 WNW 5 7 30.33 1027 10 16.09344 0 0
4:55 pm 16:55 Sunny 28 -2.1 8 -13.5 42 42 W 3 6 30.36 1028 10 16.09344 0 0
5:15 pm 17:15 Clear 25 -3.7 8 -13.6 47 47 WSW 3 6 30.36 1028 10 16.09344 0 0
5:35 pm 17:35 Clear 26 -3.4 9 -13 48 48 Calm 30.33 1027 10 16.09344 0 0
5:55 pm 17:55 Clear 24 -4.2 8 -13.4 49 49 Calm 30.33 1027 10 16.09344 0 0
6:15 pm 18:15 Clear 23 -4.8 9 -13 53 53 WSW 3 6 30.36 1028 10 16.09344 0 0
6:35 pm 18:35 Clear 23 -4.8 10 -12.3 56 56 SW 5 7 30.36 1028 10 16.09344 0 0
6:55 pm 18:55 Clear 21 -6 9 -12.7 59 59 SW 5 7 30.33 1027 10 16.09344 0 0
7:15 pm 19:15 Clear 21 -6 10 -12.5 60 60 SW 6 9 30.33 1027 10 16.09344 0 0
7:35 pm 19:35 Mostly Cloudy 22 -5.7 10 -12.1 61 61 SSW 6 9 30.33 1027 10 16.09344 0 0
7:55 pm 19:55 Cloudy 22 -5.5 11 -11.9 61 61 SSW 3 6 30.3 1026 10 16.09344 0 0
8:15 pm 20:15 Cloudy 23 -5 11 -11.5 61 61 SSW 5 7 30.27 1025 10 16.09344 0 0
8:35 pm 20:35 Partly Cloudy 25 -4.1 12 -11 59 59 SW 6 9 30.27 1025 10 16.09344 0 0
8:55 pm 20:55 Clear 24 -4.2 13 -10.7 61 61 SW 7 11 30.27 1025 10 16.09344 0 0
9:15 pm 21:15 Mostly Cloudy 27 -3 14 -10.1 58 58 SW 8 13 30.27 1025 10 16.09344 0 0
9:35 pm 21:35 Partly Cloudy 25 -4 13 -10.5 61 61 SW 8 13 30.27 1025 10 16.09344 0 0
9:55 pm 21:55 Clear 25 -4.1 14 -10.1 63 63 SW 9 15 30.27 1025 10 16.09344 0 0
10:15 pm 22:15 Clear 25 -4.1 14 -10 64 64 SW 10 17 30.27 1025 10 16.09344 0 0
10:35 pm 22:35 Clear 25 -3.8 14 -10 62 62 SW 9 15 30.24 1024 10 16.09344 0 0
10:55 pm 22:55 Clear 25 -4 14 -10 63 63 WSW 9 15 30.24 1024 10 16.09344 0 0
11:15 pm 23:15 Clear 25 -3.9 14 -9.9 63 63 WSW 10 17 30.24 1024 10 16.09344 0 0
11:35 pm 23:35 Clear 25 -3.7 15 -9.6 64 64 W 10 17 30.24 1024 10 16.09344 0 0
11:55 pm 23:55 Clear 26 -3.3 15 -9.6 62 62 W 12 19 30.24 1024 10 16.09344 0 0

Powered by AerisWeather